Kezdőlap
METAR-TAF:

METAR-TAF

Repülőterek :

Spencer Municipal Airport

Spencer, Iowa, Amerikai Egyesült Államok

földrajzi szélesség: 43-09-56N, földrajzi hosszúság: 095-12-10W, magasság: 408 m

Jelenlegi meteorológiai megfigyelések

A jelentés 31 perccel ezelõtt készült, 21:53 UTC
Nyugati szél 11 kt széllökések: 24 kt
Hőmérséklet 26°C
Páratartalom 48%
Légköri nyomás 1012 hPa
Látótávolság: 16.1 km
Derült ég

METAR: KSPW 312153Z AUTO 27011G24KT 10SM CLR 26/14 A2987 RMK AO2 LTG DSNT SW-NW SLP108 T02610144

Idő: 17:24 (22:24 UTC)


TAF: hiányzik

Meteorológiai megfigyelések és előrejelzések több, mint 4000 repülőtéren (METAR és TAF jelentéseket).

A térképen piros és sárga pontok jelzik az elérhető meteorológiai állomásokat.

Mozgassa az egeret a pont fölött, hogy megjelenjen az állomás neve.

Azután kattintson az időjárási megfigyelések és előrejelzések megtekintéséhez.

A térkép megváltoztatása: kattintson a fekete keresztel jelölt zöld gombra ráközelítéshez, a vonallal jelölt zöld gombra távolításhoz, vagy a zöld nyilakra a szomszédos térképek eléréséhez.


METAR-TAF: